TimeEDT,TemperatureF,Dew PointF,Humidity,Sea Level PressureIn,VisibilityMPH,Wind Direction,Wind SpeedMPH,Gust SpeedMPH,PrecipitationIn,Events,Conditions,WindDirDegrees,DateUTC
12:15 AM,62.6,62.6,100,29.97,1.5,East,4.6,-,N/A,,Overcast,90,2012-10-03 04:15:00
12:28 AM,62.6,62.6,100,29.97,1.2,East,3.5,-,N/A,,Overcast,100,2012-10-03 04:28:00
12:56 AM,62.1,62.1,100,29.97,0.8,East,3.5,-,N/A,,Overcast,90,2012-10-03 04:56:00
1:56 AM,63.0,62.1,97,29.98,0.8,ENE,3.5,-,N/A,,Overcast,70,2012-10-03 05:56:00
2:51 AM,62.6,62.6,100,29.98,1.0,Calm,Calm,-,0.02,Rain,Rain,0,2012-10-03 06:51:00
2:56 AM,63.0,62.1,97,29.98,1.0,Calm,Calm,-,0.03,Rain,Light Rain,0,2012-10-03 06:56:00
3:05 AM,62.6,62.6,100,29.98,2.0,Calm,Calm,-,0.00,Rain,Light Rain,0,2012-10-03 07:05:00
3:11 AM,62.6,62.6,100,29.98,3.0,Calm,Calm,-,0.00,Rain,Light Rain,0,2012-10-03 07:11:00
3:29 AM,62.6,62.6,100,29.99,5.0,Calm,Calm,-,0.00,,Overcast,0,2012-10-03 07:29:00
3:56 AM,63.0,62.1,97,29.99,5.0,Calm,Calm,-,0.00,,Overcast,0,2012-10-03 07:56:00
4:56 AM,63.0,62.1,97,30.00,3.0,Calm,Calm,-,0.00,Rain,Light Rain,0,2012-10-03 08:56:00
5:15 AM,62.6,62.6,100,30.00,2.5,Calm,Calm,-,0.00,,Overcast,0,2012-10-03 09:15:00
5:38 AM,62.6,62.6,100,30.01,3.0,Calm,Calm,-,0.00,,Overcast,0,2012-10-03 09:38:00
5:56 AM,63.0,63.0,100,30.02,3.0,Calm,Calm,-,0.00,,Overcast,0,2012-10-03 09:56:00
7:32 AM,64.4,62.6,94,30.03,1.8,Calm,Calm,-,N/A,,Overcast,0,2012-10-03 11:32:00
7:41 AM,64.4,62.6,94,30.03,1.0,Calm,Calm,-,N/A,,Overcast,0,2012-10-03 11:41:00
7:56 AM,63.0,63.0,100,30.04,1.0,Calm,Calm,-,N/A,,Overcast,0,2012-10-03 11:56:00
8:17 AM,64.4,62.6,94,30.05,0.8,Calm,Calm,-,N/A,,Overcast,0,2012-10-03 12:17:00
8:40 AM,64.4,62.6,94,30.04,1.0,Calm,Calm,-,0.01,,Overcast,0,2012-10-03 12:40:00
8:56 AM,64.0,63.0,96,30.06,1.5,Calm,Calm,-,0.01,,Overcast,0,2012-10-03 12:56:00
9:34 AM,64.4,64.4,100,30.06,2.5,Calm,Calm,-,N/A,,Overcast,0,2012-10-03 13:34:00
9:48 AM,66.2,64.4,94,30.06,3.0,Calm,Calm,-,N/A,,Overcast,0,2012-10-03 13:48:00
9:56 AM,66.0,64.0,93,30.06,2.0,Calm,Calm,-,N/A,,Overcast,0,2012-10-03 13:56:00
10:56 AM,68.0,64.9,90,30.07,2.0,Calm,Calm,-,N/A,,Overcast,0,2012-10-03 14:56:00
10:58 AM,68.0,64.4,88,30.07,4.0,Calm,Calm,-,N/A,,Overcast,0,2012-10-03 14:58:00
11:11 AM,69.8,66.2,88,30.07,2.5,WNW,3.5,-,N/A,,Overcast,290,2012-10-03 15:11:00
11:22 AM,69.8,66.2,88,30.06,3.0,West,4.6,-,N/A,,Overcast,270,2012-10-03 15:22:00
11:38 AM,69.8,66.2,88,30.07,4.0,West,4.6,-,N/A,,Overcast,280,2012-10-03 15:38:00
11:56 AM,70.0,66.0,87,30.06,4.0,WNW,3.5,-,N/A,,Overcast,290,2012-10-03 15:56:00
12:56 PM,70.0,64.9,84,30.08,9.0,WNW,6.9,-,N/A,,Overcast,300,2012-10-03 16:56:00
1:56 PM,71.1,66.0,84,30.06,10.0,WNW,3.5,-,N/A,,Mostly Cloudy,290,2012-10-03 17:56:00
2:56 PM,72.0,66.0,81,30.07,10.0,Calm,Calm,-,N/A,,Mostly Cloudy,0,2012-10-03 18:56:00
3:56 PM,73.9,66.9,79,30.07,10.0,Calm,Calm,-,N/A,,Clear,0,2012-10-03 19:56:00
4:56 PM,73.9,66.9,79,30.07,10.0,Calm,Calm,-,N/A,,Clear,0,2012-10-03 20:56:00
5:56 PM,73.0,66.9,81,30.08,10.0,ESE,3.5,-,N/A,,Clear,120,2012-10-03 21:56:00
6:56 PM,71.1,68.0,90,30.09,10.0,Calm,Calm,-,N/A,,Clear,0,2012-10-03 22:56:00
7:56 PM,69.1,66.9,93,30.10,9.0,Calm,Calm,-,N/A,,Clear,0,2012-10-03 23:56:00
8:56 PM,68.0,66.9,96,30.12,5.0,Calm,Calm,-,N/A,,Clear,0,2012-10-04 00:56:00
9:56 PM,68.0,66.9,96,30.12,7.0,Calm,Calm,-,N/A,,Clear,0,2012-10-04 01:56:00
10:56 PM,66.9,66.0,97,30.12,5.0,Calm,Calm,-,N/A,,Clear,0,2012-10-04 02:56:00
11:56 PM,66.9,66.0,97,30.13,5.0,Calm,Calm,-,N/A,,Clear,0,2012-10-04 03:56:00